RH
20 20 20 19 20 19 17 15 14 16 16 18 19 18 17 16 17 17 15 14 15 16 16 17 16 17 17 15 15 16 17 17 13 17 20 19 16 13 14 13 13 14 11 15 20 21 17 10 8 8 11 12 10 11 12 11 12 18 22 24 24 19 13 12 12 13 14 13 14 11 14 19 14 17 23 22 22 21 23 27 27 23 23 24 25 27 28 28
20 19 20 19 19 18 17 15 16 16 16 18 18 17 17 17 17 16 15 13 14 15 15 16 16 16 16 16 16 16 18 15 9 18 22 14 11 12 13 12 12 13 13 19 21 16 11 7 6 6 8 10 10 10 13 13 13 19 20 20 23 17 11 12 13 13 14 14 15 14 13 15 16 16 13 17 20 19 28 35 33 30 26 25 25 25 27 26
19 19 20 19 19 19 18 17 16 15 15 17 17 17 18 18 17 16 16 14 14 14 13 14 14 16 16 15 17 15 20 17 7 14 16 10 11 11 12 13 11 11 13 21 20 13 10 9 8 7 7 9 10 10 13 15 14 18 20 19 17 13 11 12 14 15 15 16 15 14 14 14 16 15 14 21 22 24 41 46 41 36 29 26 25 25 25 24
19 19 19 20 20 20 19 17 15 14 15 17 16 17 18 18 18 17 16 16 15 12 11 11 12 15 15 15 16 15 21 18 8 12 11 9 11 9 12 13 11 11 11 15 17 14 12 10 9 9 12 14 12 12 14 14 14 16 18 17 13 10 10 12 15 17 16 16 14 13 14 15 14 15 17 19 23 36 47 44 41 36 29 26 26 25 25 24
19 19 19 20 19 19 19 16 14 13 14 16 16 16 17 18 18 15 14 15 15 13 12 13 12 14 16 16 14 16 22 19 10 12 10 9 10 8 10 12 12 12 11 15 15 12 11 9 9 11 16 16 14 16 15 11 13 18 17 13 12 11 11 13 15 18 18 15 14 14 13 15 15 17 20 21 31 45 42 36 38 35 30 27 25 26 25 24
20 21 20 19 19 19 18 15 14 13 13 16 16 16 16 17 17 14 13 13 14 15 15 15 15 15 15 15 17 19 20 18 13 13 11 8 9 8 8 12 13 12 13 16 13 8 7 6 8 11 14 15 14 16 14 10 14 21 18 12 11 13 14 14 15 17 18 16 15 15 15 15 17 20 22 26 33 37 33 34 37 35 31 27 26 27 26 26
22 22 20 20 21 19 17 15 13 12 14 16 16 16 16 17 16 12 12 13 14 14 15 16 15 16 14 15 24 19 11 13 12 13 12 9 9 8 9 12 13 12 11 12 9 7 8 7 8 9 14 18 15 18 17 11 16 22 20 14 11 13 15 15 17 17 16 16 15 14 14 14 19 24 23 24 25 25 28 29 30 32 30 28 30 29 27 26
23 22 21 22 21 19 16 14 13 13 15 17 17 16 16 17 14 9 11 15 15 14 16 16 15 15 10 12 23 16 8 12 12 14 14 10 10 9 11 12 13 12 10 10 9 9 8 8 10 10 19 20 15 23 22 17 25 25 18 16 13 12 13 13 16 14 12 14 13 12 12 15 21 24 22 21 18 17 22 23 25 29 29 30 31 29 26 23
22 22 23 22 21 19 17 16 15 15 17 17 17 16 15 16 13 7 8 12 13 13 14 13 13 15 12 15 21 13 10 13 12 15 14 12 11 11 14 13 13 12 9 11 11 10 9 11 12 11 18 18 15 24 23 23 31 26 21 21 16 13 12 12 12 10 11 13 12 13 13 18 22 21 21 21 16 15 20 23 25 27 29 30 29 27 24 22
23 23 23 21 19 18 17 17 16 17 17 16 15 15 15 16 13 7 7 9 10 10 10 11 12 16 16 18 19 12 11 12 13 15 14 15 12 11 15 12 13 12 10 11 12 13 10 11 11 10 16 18 20 27 25 24 24 22 26 27 21 16 12 12 11 10 13 14 13 15 16 18 20 21 24 20 14 17 22 25 26 28 30 28 27 26 22 20
22 22 20 19 18 16 16 16 16 16 15 14 14 14 15 16 14 9 9 9 9 7 7 9 12 15 12 11 12 11 12 12 14 14 15 17 14 13 13 11 13 13 11 11 12 14 13 14 11 12 20 20 22 31 31 25 24 24 26 30 28 17 10 11 12 12 13 14 14 15 17 19 20 22 24 19 15 19 24 27 27 29 29 26 23 22 20 20
21 20 18 18 17 15 15 14 15 15 15 14 14 14 14 15 15 13 10 8 7 7 8 8 11 14 11 10 11 11 12 13 14 14 15 18 16 14 12 11 12 13 12 10 11 14 17 18 14 16 24 22 25 35 37 28 24 25 24 30 28 17 13 11 12 13 13 15 15 17 22 25 25 25 23 18 17 21 25 27 28 29 27 24 21 20 20 20
21 19 19 19 16 14 13 13 14 15 14 14 14 14 14 14 14 13 11 8 7 8 10 10 13 14 13 15 13 10 13 13 13 13 13 15 16 15 13 12 11 12 13 10 11 12 16 18 16 21 22 23 28 31 35 31 24 25 25 26 23 21 20 12 14 15 14 15 13 21 32 31 28 25 22 20 19 22 26 28 29 29 26 23 21 21 21 20
20 20 21 19 15 12 11 12 13 14 14 14 14 13 12 13 13 12 12 10 8 9 10 11 14 13 15 16 12 10 13 13 12 13 12 13 14 14 14 13 11 11 12 11 10 10 14 16 17 22 20 25 34 32 35 33 24 22 25 27 25 28 24 14 17 17 16 16 12 24 34 30 29 26 23 22 21 24 28 29 29 30 26 22 20 20 20 19
20 20 21 16 12 12 12 13 13 13 14 15 15 12 11 11 11 11 11 9 8 8 12 15 15 15 17 14 9 11 13 12 12 13 13 13 14 13 12 14 13 10 10 10 9 9 13 14 18 25 22 24 33 36 35 26 18 21 29 33 28 29 27 17 19 19 18 17 13 26 34 29 29 27 25 24 23 25 29 30 29 28 23 19 19 19 19 19
19 20 18 13 13 14 14 13 12 13 13 13 13 13 12 11 11 13 12 9 9 9 15 20 16 17 19 13 9 11 11 11 12 12 14 14 14 14 13 13 13 11 10 8 8 10 10 13 25 30 22 20 24 28 28 25 24 26 31 35 29 29 32 24 23 22 21 21 20 27 30 29 29 27 26 25 24 26 29 30 28 24 21 19 20 19 20 20
18 18 15 12 13 13 12 11 10 11 11 12 13 13 13 13 13 14 13 8 8 10 14 17 14 15 17 11 9 11 10 11 12 12 13 14 13 14 14 11 11 10 9 9 9 10 10 15 27 28 20 19 23 25 29 34 35 32 33 34 29 29 33 30 26 25 25 28 29 26 24 28 29 27 28 27 26 28 30 30 27 23 21 21 20 20 20 20
18 18 14 12 12 12 12 11 11 11 12 13 13 13 12 12 14 15 15 10 11 16 17 17 18 21 21 12 10 12 11 12 12 11 14 15 12 14 16 12 11 9 10 12 11 14 16 17 21 21 22 23 25 31 34 35 36 38 38 38 37 33 33 31 26 28 30 33 35 26 22 27 28 27 29 29 27 29 31 29 26 22 20 20 20 20 20 21
17 18 16 13 11 11 10 11 12 11 12 12 13 18 17 17 19 16 16 17 23 28 27 26 25 27 24 13 11 13 12 12 11 12 14 15 15 15 16 14 12 12 17 18 17 22 24 22 23 26 31 29 27 34 35 32 33 37 38 42 46 40 33 26 22 29 32 34 35 27 25 28 29 29 29 29 29 31 31 26 23 21 20 21 21 22 23 24
17 17 17 15 12 11 10 10 10 9 11 10 15 28 29 28 24 17 20 26 28 28 29 30 23 19 16 11 12 14 12 12 10 12 14 15 17 15 14 15 14 17 26 30 27 26 24 29 34 32 33 29 24 29 31 31 33 37 43 47 44 37 31 22 21 29 31 34 34 26 27 31 29 30 29 29 29 31 30 26 23 22 23 23 24 26 26 27
17 16 16 16 13 12 11 10 11 11 12 11 18 33 38 38 33 24 29 32 28 25 24 25 18 13 13 12 14 15 15 13 10 12 14 15 15 16 18 19 19 22 29 37 33 24 23 34 37 29 25 24 25 30 32 33 35 40 45 41 34 33 30 22 23 29 28 34 35 25 27 32 30 30 29 29 30 29 27 24 24 24 25 25 26 30 31 32
17 16 15 16 13 13 12 11 12 12 17 21 24 33 38 40 37 31 33 30 27 26 22 22 17 12 14 12 14 16 16 15 13 13 15 16 15 22 30 24 23 27 27 33 34 27 30 36 31 22 22 26 32 35 34 33 37 40 39 33 32 33 32 27 26 28 25 31 35 28 29 32 30 29 30 30 30 29 25 23 25 24 25 28 29 33 35 36
16 16 15 16 14 13 11 11 11 11 25 33 28 30 31 27 22 26 35 30 26 29 24 24 20 14 14 12 14 16 15 18 18 15 17 18 18 28 36 28 26 29 26 28 29 28 34 32 23 23 30 33 33 35 36 35 34 35 33 33 36 34 36 37 31 28 28 35 39 35 36 37 32 31 32 30 30 29 26 26 27 27 29 30 32 35 38 40
16 15 16 15 13 14 12 14 12 11 22 25 20 22 20 17 14 22 37 32 26 30 24 24 22 15 16 13 15 19 18 19 18 16 18 20 22 28 31 31 33 32 31 32 30 30 33 26 22 30 35 31 30 34 40 38 33 33 34 35 35 33 36 37 33 31 32 40 44 37 37 40 36 36 35 32 31 30 29 29 30 32 33 34 35 38 41 44
15 15 16 14 14 14 12 15 15 13 23 22 17 18 13 15 16 19 37 34 25 30 28 27 22 14 16 13 15 21 22 22 18 17 19 19 25 30 31 33 33 34 38 36 30 32 30 23 27 37 33 27 31 37 41 39 34 35 38 34 31 33 37 36 37 40 38 40 39 33 38 45 39 35 35 34 32 30 31 31 33 33 33 37 41 40 41 42
14 14 14 13 14 12 16 25 17 15 32 30 18 17 14 18 17 20 39 36 24 30 32 28 23 19 18 14 17 25 29 29 19 16 21 21 25 34 36 31 30 38 44 37 32 31 28 25 31 37 33 30 32 34 35 37 38 37 35 34 32 33 40 42 42 48 46 39 32 28 38 45 39 36 36 35 34 32 31 31 32 31 33 41 45 40 38 37
12 12 11 11 11 11 22 29 16 19 42 34 15 16 17 17 17 26 43 38 28 33 31 22 21 23 21 16 18 26 32 32 22 17 23 24 24 33 38 33 34 39 39 38 37 34 32 32 35 37 34 31 32 32 31 33 39 38 31 33 34 34 42 44 44 48 44 36 32 28 32 39 38 37 36 34 35 34 32 33 34 34 37 43 44 39 37 36
11 10 9 10 9 10 19 23 21 32 42 28 15 17 18 16 22 36 43 35 26 27 27 24 20 19 22 21 20 25 30 31 29 23 21 22 24 30 36 36 36 36 39 44 40 36 37 36 41 46 38 31 32 31 29 31 37 36 32 33 34 37 42 42 46 49 40 40 43 32 30 38 38 38 39 37 36 37 38 38 39 40 42 44 43 41 38 37
10 9 9 8 8 11 15 18 26 31 23 15 17 18 15 18 29 40 37 28 27 27 27 28 23 21 30 31 26 27 30 30 32 28 24 24 21 25 37 42 38 36 41 44 41 41 40 36 45 50 38 31 31 28 28 34 36 32 32 35 36 40 45 47 49 44 38 48 49 32 28 39 41 38 40 40 38 40 41 39 41 45 47 46 45 45 41 39
9 11 10 9 15 18 16 17 18 18 16 17 19 17 20 30 38 37 27 25 33 36 32 29 26 28 37 38 32 30 31 32 33 31 29 28 23 26 39 44 38 36 40 43 46 47 40 43 51 44 32 30 31 29 31 35 35 34 36 34 32 35 43 48 43 34 42 51 42 29 27 39 48 38 33 46 48 43 43 41 44 49 49 48 48 46 43 39
9 12 10 11 19 21 26 30 18 14 20 19 18 24 35 42 38 29 25 31 38 35 34 36 35 35 37 38 34 32 35 34 33 35 37 32 29 31 35 39 39 39 40 39 45 51 46 48 50 40 35 36 33 31 35 40 39 38 36 31 32 34 35 40 36 37 52 49 32 28 28 38 52 42 38 55 55 46 48 48 49 53 52 52 49 45 41 35
10 12 11 12 15 16 31 37 20 16 22 19 26 38 43 38 28 24 27 33 38 35 37 43 40 35 37 37 35 37 40 35 30 38 45 40 39 41 38 42 47 43 37 32 39 53 54 48 44 42 39 36 31 30 36 42 38 32 29 32 43 44 41 43 41 44 51 42 29 28 33 41 45 40 42 51 50 48 52 53 53 54 54 52 48 45 41 33
13 12 11 14 14 14 25 25 16 21 22 22 36 41 35 29 28 33 29 25 35 41 44 47 40 34 39 38 35 39 40 36 33 37 41 38 39 46 43 41 48 45 35 29 31 39 46 44 41 41 38 31 27 25 31 36 33 30 30 38 50 51 53 56 49 48 50 41 30 28 39 50 42 35 40 42 42 47 49 50 53 53 51 50 47 45 42 33
16 13 11 15 16 15 19 18 20 24 21 28 41 37 27 23 28 36 31 28 38 44 44 44 37 35 40 36 33 38 37 37 41 39 36 32 31 38 41 38 45 47 39 33 30 32 40 43 41 40 35 29 28 29 34 39 39 35 27 33 46 47 51 59 54 55 58 48 39 36 43 50 44 39 39 36 38 43 45 49 52 54 52 48 45 43 40 33
16 14 12 14 17 17 17 18 22 21 25 38 40 32 27 22 23 29 32 37 37 37 43 45 40 37 37 35 33 40 43 39 40 39 35 33 34 37 39 39 42 46 47 43 37 35 38 40 41 38 30 26 30 32 36 42 44 36 26 33 47 42 40 53 53 48 55 61 54 45 41 37 37 39 37 37 39 40 44 50 52 55 53 47 46 43 37 32
22 22 17 15 17 20 18 18 21 21 30 43 38 33 34 30 32 38 44 48 40 36 41 43 44 35 28 33 33 34 44 41 35 34 33 37 42 39 39 45 45 45 48 45 40 38 38 39 41 39 34 30 29 31 35 40 37 32 33 38 42 38 36 53 58 42 48 66 55 41 40 35 36 42 38 38 41 38 41 48 50 51 49 46 45 40 34 29
33 32 25 18 14 20 22 18 20 24 36 44 37 32 34 36 42 48 51 51 46 43 35 30 40 37 23 28 30 28 39 42 34 30 30 38 46 42 41 48 46 39 41 45 43 38 39 45 42 40 43 38 32 32 35 39 39 35 37 37 36 40 38 46 61 56 57 67 51 36 44 47 48 51 44 40 42 37 36 42 47 49 47 45 40 34 30 27
34 31 28 22 11 16 25 20 19 29 39 41 34 30 35 43 50 53 54 54 50 46 34 26 38 39 25 23 26 28 37 39 32 28 29 33 43 46 42 45 46 39 38 47 47 38 40 49 42 34 40 41 38 39 36 40 43 36 34 34 37 51 53 46 55 64 68 72 59 44 47 50 50 51 46 41 39 37 35 39 46 48 44 39 34 31 28 26
34 38 38 24 8 13 21 18 23 34 37 36 35 34 40 50 56 58 60 59 52 43 32 29 35 34 28 28 27 29 36 35 29 28 30 31 41 49 43 40 47 44 39 45 47 39 39 48 43 32 35 38 36 39 39 40 45 41 37 36 35 45 52 48 50 58 64 72 70 60 56 51 42 39 39 37 35 36 39 42 43 42 38 34 32 30 28 27
37 41 40 19 6 15 19 22 35 44 43 41 40 40 46 55 60 61 62 61 55 43 30 28 32 30 29 30 27 27 32 32 28 27 28 30 39 49 48 44 46 47 46 47 48 42 37 42 45 40 39 39 36 35 32 30 38 44 43 43 43 43 46 50 54 56 58 67 74 73 67 51 35 31 32 31 32 34 38 41 40 38 36 34 31 30 28 28
33 35 40 20 6 14 24 34 40 40 38 38 39 45 51 56 60 62 64 67 62 50 39 37 35 31 30 30 29 30 29 27 27 28 27 30 36 47 61 64 58 56 54 47 47 47 39 39 46 45 42 41 38 33 29 28 32 36 38 43 45 46 51 60 64 60 58 62 66 72 73 55 33 27 28 28 31 33 36 39 39 37 36 33 31 30 29 28
32 36 35 16 5 15 33 44 40 33 37 44 50 54 53 53 57 61 63 66 62 51 44 42 39 37 36 36 33 31 31 29 28 29 29 35 45 57 71 76 70 66 57 45 46 49 42 43 49 48 43 40 36 30 32 39 37 31 32 35 40 47 53 60 66 65 63 60 55 65 77 59 32 26 27 28 29 30 34 38 38 37 35 35 32 28 27 28
36 36 27 13 9 21 40 49 45 43 47 54 58 57 53 50 53 57 56 55 53 45 41 44 46 44 43 41 34 31 35 33 31 33 31 35 57 76 79 77 75 67 54 46 47 48 46 47 50 50 43 37 36 30 33 42 41 36 35 33 42 52 50 53 61 63 68 66 57 70 82 59 33 28 27 25 27 31 34 36 37 37 36 34 31 26 26 28
37 33 30 20 11 21 41 49 48 49 49 49 51 52 51 48 50 52 49 46 46 38 35 41 45 44 45 44 37 35 39 37 35 40 32 29 59 85 84 82 77 65 61 64 61 57 53 44 44 54 52 44 44 41 40 43 38 35 37 35 43 52 53 59 63 63 72 68 57 73 81 53 31 30 26 25 29 32 34 35 35 36 37 35 30 24 26 28
34 30 34 27 17 26 47 52 45 48 49 47 47 46 45 47 52 56 51 48 47 39 36 43 45 43 45 46 42 40 42 37 35 41 33 31 61 85 85 86 83 73 76 83 77 69 59 43 39 53 58 53 53 51 48 46 39 35 39 41 48 58 64 63 61 69 79 65 53 69 70 44 30 30 29 30 33 34 35 35 34 35 37 36 29 24 26 26
34 34 36 33 29 34 46 48 41 43 48 46 42 39 39 44 51 56 55 53 51 45 40 43 45 42 42 48 47 42 45 43 37 38 35 35 56 77 83 86 84 84 88 89 81 65 54 50 45 46 52 51 49 46 40 40 41 41 44 50 58 66 67 60 59 68 70 61 57 58 52 45 39 34 33 34 35 37 37 37 37 37 38 35 27 25 27 24
36 37 41 41 41 38 39 40 39 41 43 39 36 37 39 43 49 51 52 53 55 52 43 39 43 43 41 45 43 40 47 49 41 40 40 41 51 69 85 87 81 85 91 88 80 62 53 61 58 48 49 49 42 38 36 37 40 39 42 54 65 72 71 67 66 60 53 59 61 45 38 48 44 34 35 36 36 38 38 37 39 39 38 33 25 26 29 24
39 41 48 50 50 44 40 44 47 45 41 36 35 39 42 44 47 48 47 49 52 52 47 44 46 47 43 39 36 37 45 48 46 48 49 47 49 58 75 82 80 87 87 74 66 60 56 62 62 55 52 46 40 38 37 38 40 38 40 46 57 73 78 71 64 54 50 60 58 40 37 46 41 34 36 37 37 38 36 35 38 39 38 33 26 26 27 24
44 43 46 51 52 42 40 48 50 45 40 34 32 38 42 42 44 45 43 46 48 48 48 46 44 45 42 38 37 36 39 42 43 49 55 54 52 52 58 68 80 90 80 58 53 58 58 60 62 61 57 48 43 44 43 42 42 41 42 40 42 58 70 69 63 55 52 56 48 40 45 47 40 38 38 37 37 36 33 35 38 40 38 34 30 28 27 26
49 45 42 47 45 34 34 40 42 42 39 34 35 39 41 42 46 45 40 41 44 44 46 45 43 45 42 40 42 40 41 44 36 39 54 57 54 54 50 53 71 82 67 51 55 59 57 60 58 54 57 52 44 44 45 44 41 38 38 37 35 40 51 60 62 58 60 61 53 50 58 55 42 38 40 39 36 34 35 38 40 41 39 35 31 29 28 27
34 33 36 45 42 32 33 32 33 39 34 31 37 39 36 39 44 44 41 45 49 47 45 44 45 51 50 46 46 45 50 53 44 44 54 50 44 48 44 43 58 73 67 59 62 62 57 58 53 50 59 55 40 40 43 39 41 45 43 41 37 36 42 47 51 55 60 62 60 61 64 57 42 37 39 37 35 37 39 40 42 42 39 35 31 28 29 28
28 29 33 46 43 32 33 32 30 34 35 39 47 46 44 43 42 40 37 42 54 58 56 52 46 48 50 51 55 58 59 57 49 48 49 43 38 38 40 46 53 63 70 68 66 66 62 59 51 51 63 58 40 39 43 43 52 58 52 48 42 38 41 40 39 45 47 48 54 59 53 43 36 35 37 36 37 40 41 41 44 44 38 32 28 27 28 27
Wind_Speed
6 7 6 6 8 7 8 8 7 7 8 8 8 9 9 8 6 6 7 6 6 5 5 3 3 2 1 1 2 4 6 5 14 19 17 15 20 18 16 16 14 11 8 9 8 7 6 4 1 1 3 3 1 1 1 2 2 2 2 2 4 5 4 5 6 7 6 7 9 10 8 8 7 4 2 1 2 5 5 4 5 6 10 12 13 17 18 15
6 6 5 6 7 6 7 7 6 7 8 8 8 9 10 9 7 6 5 5 4 3 4 6 7 7 7 4 4 6 9 5 14 18 14 18 20 16 16 16 15 13 10 11 11 10 6 4 4 2 4 1 2 1 1 2 4 1 2 2 5 4 4 6 8 9 8 7 8 8 8 7 6 6 5 5 8 8 7 10 10 10 9 10 14 16 15 12
6 5 4 5 6 5 6 6 6 7 7 8 8 8 10 10 8 6 4 4 3 1 1 2 4 8 10 8 7 8 11 7 11 14 14 19 17 16 18 16 15 14 11 10 11 11 8 5 4 4 3 1 2 1 0 3 4 1 2 2 5 4 5 8 10 9 7 7 7 7 7 6 5 6 5 5 7 8 11 10 11 11 11 5 11 14 12 10
5 4 4 5 5 5 5 5 6 6 7 7 6 6 8 8 8 6 4 3 4 5 7 10 8 3 5 8 8 7 9 5 6 12 16 17 17 17 17 16 15 13 11 8 7 7 6 5 4 4 3 0 2 2 2 3 2 2 2 3 5 5 5 9 10 8 6 5 6 6 6 6 7 5 4 7 6 6 10 8 8 8 9 5 9 11 10 10
4 4 5 4 4 4 4 5 6 6 6 6 5 5 5 6 7 7 4 1 2 5 6 9 10 10 5 2 4 4 5 2 4 13 18 17 16 16 15 16 13 11 12 8 7 7 5 6 3 2 2 1 3 2 3 5 3 2 3 5 5 5 4 8 8 5 5 4 5 6 6 6 6 4 5 10 7 5 5 6 8 6 6 6 9 10 10 11
3 4 4 4 4 4 3 4 5 6 6 6 5 4 5 6 7 8 6 1 2 3 1 3 6 9 7 3 1 2 2 1 6 15 18 16 14 15 14 14 11 11 11 9 9 5 3 4 2 1 1 3 4 4 4 5 4 1 4 5 4 4 3 6 6 3 3 4 5 5 5 5 4 4 9 11 9 5 5 7 8 7 8 10 12 11 10 11
3 4 4 4 4 4 4 5 5 5 5 5 4 4 5 6 8 10 7 4 2 6 4 3 6 8 6 4 1 1 4 4 9 16 17 15 12 13 12 11 11 12 11 10 11 6 4 6 4 2 2 3 3 4 4 3 3 2 3 5 3 2 4 5 3 2 2 2 4 6 6 5 4 6 9 11 9 6 8 10 10 10 12 13 13 11 13 15
4 5 5 6 6 5 5 5 5 4 5 4 4 5 6 7 10 10 8 6 3 3 4 4 6 6 6 4 2 3 6 6 12 16 17 14 11 12 11 9 11 11 10 11 11 8 4 6 6 3 1 4 2 2 3 2 2 3 3 3 4 2 6 4 3 1 2 2 4 8 7 6 7 8 9 9 8 8 9 12 12 12 12 12 12 13 16 16
5 6 6 7 7 6 6 5 5 5 4 4 4 4 5 6 9 10 10 11 10 7 3 2 4 5 5 5 4 1 5 8 12 14 16 13 10 12 10 8 11 10 9 11 12 11 6 4 6 4 2 3 1 2 3 3 2 2 3 3 4 3 6 2 2 5 3 2 7 10 8 5 7 7 8 8 7 7 10 12 11 10 10 11 12 15 16 15
6 6 7 8 8 7 6 5 5 5 5 4 4 4 4 5 8 10 13 12 11 9 7 5 6 8 7 4 2 3 6 10 10 13 15 12 11 12 8 8 12 11 8 10 11 11 7 5 5 4 2 2 1 1 1 2 1 3 3 3 4 3 4 1 4 8 3 4 11 11 8 5 8 5 5 6 7 8 12 12 11 9 10 12 13 13 14 14
6 6 7 7 7 6 5 5 4 4 4 5 4 4 4 4 6 7 6 6 7 7 6 5 6 10 13 10 6 4 7 11 10 14 14 9 11 12 9 10 12 12 8 9 9 9 7 6 7 3 1 1 1 2 1 1 1 4 2 2 2 4 2 2 6 8 3 4 11 11 8 4 9 7 5 6 6 10 13 12 11 10 10 12 12 10 12 14
6 6 6 6 6 5 5 4 3 4 5 6 6 5 4 3 3 3 2 4 7 8 5 5 7 8 10 12 7 3 7 9 10 13 12 8 9 9 10 9 10 11 9 7 6 6 5 7 8 4 2 2 1 3 2 1 2 2 1 1 2 6 3 2 7 7 5 3 9 10 4 5 8 7 6 6 5 12 13 11 10 9 10 10 10 9 10 13
6 5 5 6 6 5 5 4 4 5 6 7 7 6 4 3 2 2 3 4 7 9 8 7 8 7 5 5 3 4 7 9 11 13 12 9 6 5 8 8 9 9 8 7 4 4 5 8 7 4 1 3 2 2 1 1 3 1 2 1 2 2 1 5 7 6 6 4 8 7 2 5 6 7 7 6 6 11 11 9 8 8 9 8 8 8 8 12
5 5 5 6 6 5 4 5 6 7 7 7 7 6 5 4 4 4 4 5 3 3 5 5 4 6 6 3 1 6 10 10 12 14 14 13 6 2 5 6 6 7 6 5 3 3 4 7 5 1 1 2 3 2 2 2 1 1 2 2 4 2 3 5 6 5 5 4 8 6 1 3 6 7 7 5 7 11 9 8 8 8 8 8 8 8 7 10
5 5 5 5 6 5 6 7 7 6 5 4 5 6 7 7 7 7 6 6 3 1 5 5 3 3 3 3 1 5 11 10 13 15 13 14 8 3 5 5 4 4 5 3 3 2 4 6 4 2 3 2 2 1 2 1 2 4 3 3 5 3 5 3 5 5 6 5 8 5 2 3 6 7 7 5 8 11 9 8 8 8 9 9 7 7 6 7
6 6 6 5 6 8 11 11 9 8 5 3 2 3 3 4 4 6 6 6 6 5 6 6 6 6 1 2 0 4 10 11 13 14 12 13 7 4 7 3 2 2 1 2 3 1 2 2 2 1 6 5 3 2 2 3 4 4 4 2 5 4 5 4 3 4 7 7 8 5 3 2 5 7 7 6 8 10 8 8 9 8 9 8 6 6 5 5
7 6 6 8 10 13 15 15 14 15 14 13 10 8 6 5 4 5 4 3 5 7 7 8 9 3 3 3 2 4 11 12 12 13 14 11 5 6 7 1 1 2 2 4 4 3 3 1 1 0 5 7 6 4 3 5 4 4 4 2 3 4 5 5 0 2 8 7 7 7 2 4 6 6 7 7 8 9 8 8 8 7 7 6 6 5 5 4
7 7 6 7 9 11 11 12 13 13 14 15 15 14 15 16 15 13 8 2 1 2 4 9 9 2 3 6 5 8 12 12 11 13 16 10 5 8 7 2 1 4 4 4 3 2 2 1 2 2 5 7 7 7 4 2 3 3 4 4 3 4 5 5 4 3 6 6 6 7 2 6 7 6 7 6 7 8 8 7 6 7 7 6 6 4 4 4
7 7 4 4 3 3 4 5 5 4 3 4 5 5 6 9 13 19 20 12 4 2 1 5 6 2 1 6 8 12 11 10 8 14 18 13 8 9 7 6 5 4 3 1 2 5 4 3 3 4 6 7 7 7 4 2 4 4 5 4 5 6 4 5 6 3 4 4 4 6 3 6 6 6 6 5 6 7 7 7 6 6 6 5 5 4 4 3
7 7 5 3 1 2 3 2 3 4 5 6 4 5 3 1 2 8 14 13 7 4 3 3 4 3 1 4 10 14 7 6 5 15 21 18 12 9 6 6 5 1 2 1 3 2 2 5 6 4 4 4 4 4 2 3 4 5 5 5 6 6 5 8 8 0 2 2 3 5 2 6 6 5 5 4 4 6 6 7 6 6 5 4 4 4 3 3
6 7 6 4 2 0 2 3 5 7 7 5 4 4 1 1 1 2 1 5 5 4 3 1 2 4 2 4 8 12 4 3 6 15 23 20 8 4 4 4 1 3 2 1 2 2 4 7 6 4 4 3 3 2 3 4 5 5 5 4 4 5 7 10 7 0 0 2 3 6 2 5 5 4 5 4 4 4 5 6 6 6 5 4 4 3 2 1
6 6 7 6 4 4 2 2 4 3 1 2 1 1 3 3 4 6 2 3 3 4 2 2 2 4 4 2 6 10 4 2 8 15 25 22 9 3 4 3 4 3 1 2 0 2 5 6 4 4 5 3 3 2 6 9 5 5 3 3 3 4 7 8 5 4 5 3 4 7 3 4 5 5 4 4 3 3 3 5 5 5 5 3 3 2 1 2
5 6 7 7 5 5 4 4 4 3 3 3 4 5 6 7 8 5 1 2 2 3 1 4 4 5 5 4 8 11 5 5 6 10 20 19 8 5 4 3 6 5 5 5 3 3 4 3 3 4 4 5 2 1 8 9 4 1 1 3 5 5 6 5 5 9 10 5 3 5 3 2 5 4 4 3 3 3 3 4 4 3 4 3 2 1 3 4
5 6 7 7 6 4 5 5 4 5 6 6 9 9 8 7 4 1 2 1 2 1 1 2 2 4 4 3 7 8 4 5 5 8 15 13 5 3 3 3 4 5 5 6 7 7 4 2 4 5 4 4 4 4 7 6 4 2 3 0 6 7 7 7 7 10 9 4 3 4 4 3 5 4 4 4 3 4 4 4 4 3 3 3 0 3 4 3
5 6 6 7 6 4 3 4 4 7 8 7 9 9 7 4 1 2 1 1 1 1 1 0 1 2 3 3 6 4 1 2 4 7 10 9 6 4 1 1 1 3 3 3 6 7 4 2 3 5 3 5 6 4 6 4 5 3 2 1 7 8 8 10 9 8 5 2 1 2 3 2 6 7 5 4 4 4 4 4 4 4 4 2 2 3 4 4
6 6 6 6 6 4 2 1 4 7 5 4 6 7 4 2 1 2 0 2 0 0 1 1 1 3 4 6 7 0 2 1 2 7 9 8 4 2 1 1 1 3 2 2 3 3 2 1 2 4 2 6 6 3 4 4 4 4 3 6 8 7 7 9 8 5 2 4 3 2 1 4 3 6 6 5 5 5 5 5 4 4 3 1 3 2 3 4
6 6 6 6 5 5 2 1 4 4 1 3 6 4 1 0 1 2 1 2 1 1 1 1 0 3 4 7 8 2 2 4 2 7 10 9 4 3 0 3 1 2 2 2 2 0 1 2 2 4 1 5 5 3 3 3 2 4 7 10 11 9 8 7 6 4 3 6 4 3 3 5 3 3 5 6 5 5 5 5 5 5 1 2 2 4 4 6
7 7 7 5 4 4 2 3 4 1 1 4 5 2 2 2 1 2 1 1 1 1 1 1 1 3 3 6 8 4 1 4 2 5 9 7 4 2 0 4 3 3 2 1 1 1 3 4 4 5 3 4 3 4 3 2 0 6 10 12 12 11 9 6 3 4 4 4 3 1 2 4 5 1 4 5 4 6 6 6 6 4 1 1 4 5 8 8
8 7 7 5 3 2 2 3 2 2 2 5 5 2 3 2 2 1 1 2 0 1 0 1 0 2 3 3 5 5 1 3 2 5 7 4 5 2 2 3 3 3 1 0 2 1 1 3 3 2 2 2 3 5 2 2 3 7 10 13 12 10 8 4 3 4 3 2 2 2 2 4 5 2 4 3 4 4 4 4 3 3 2 3 3 6 8 7
9 8 7 5 1 1 2 1 1 3 4 5 4 3 2 2 1 0 1 2 1 1 1 2 0 2 4 1 2 5 4 3 2 5 3 2 5 5 2 1 1 2 2 4 4 2 2 3 2 1 1 2 5 6 3 5 7 7 8 10 10 6 2 4 2 2 2 1 2 1 4 5 4 1 4 2 3 3 3 3 2 3 3 4 3 5 6 6
12 10 8 6 1 2 1 1 3 5 5 5 5 2 1 1 0 0 2 2 1 0 1 2 1 2 4 1 2 5 4 2 3 5 3 2 6 7 3 2 2 2 2 2 3 2 2 1 1 1 1 2 5 4 3 5 7 5 5 6 6 4 2 2 1 2 0 3 2 4 6 3 4 2 2 3 4 5 4 4 4 3 4 3 3 5 5 4
14 13 11 9 3 1 1 3 5 5 5 4 3 2 1 1 0 1 1 1 0 1 0 1 1 1 2 2 3 4 3 2 3 3 2 2 5 6 5 4 3 1 2 1 1 2 2 1 1 2 2 2 4 3 1 2 4 3 4 6 5 3 2 1 1 1 2 5 1 6 8 2 5 2 2 4 5 6 6 5 4 2 2 3 4 5 5 4
13 13 12 10 6 3 4 5 5 5 4 2 2 2 1 1 1 1 1 1 1 1 0 0 1 1 2 1 2 2 0 1 3 3 1 1 3 3 5 7 5 1 1 3 3 1 1 2 1 1 1 2 4 3 1 2 4 4 4 5 3 3 4 4 2 2 4 5 5 8 7 2 4 2 3 5 6 6 6 5 4 3 2 3 5 5 6 6
10 12 11 8 5 5 5 4 4 4 3 1 2 1 1 1 1 1 0 0 0 1 1 1 1 2 1 2 2 2 1 1 3 4 4 1 3 2 3 7 8 4 1 3 3 1 1 2 2 2 1 2 3 2 1 2 3 3 1 3 3 2 1 2 3 4 5 7 10 8 2 2 5 3 4 5 5 5 5 5 5 3 5 5 5 5 7 7
7 8 9 7 5 3 2 2 3 3 2 2 2 1 0 1 1 0 1 1 1 1 2 1 1 2 1 2 1 1 2 1 2 4 4 3 2 3 2 4 7 5 2 1 1 1 2 3 0 2 2 1 2 1 2 0 2 3 1 3 2 1 2 2 4 5 6 7 7 3 3 3 2 1 3 4 4 4 5 6 4 4 6 5 5 5 6 5
5 6 7 7 6 3 1 2 3 2 1 2 1 1 1 1 0 1 1 0 1 1 1 1 1 2 1 2 1 1 1 0 2 2 2 2 2 2 1 2 4 5 2 1 1 1 2 2 3 2 3 2 2 0 1 1 1 2 1 1 1 3 3 1 5 6 5 5 4 3 5 4 1 1 2 4 5 5 6 6 4 5 7 6 5 4 4 5
4 4 4 6 8 4 0 1 2 2 1 1 0 1 1 1 1 1 2 1 0 1 0 1 1 1 1 1 1 1 1 1 1 1 0 0 1 2 2 1 2 4 3 2 1 1 1 3 4 4 1 0 1 2 2 2 2 0 0 2 0 3 3 1 3 3 2 4 4 4 7 7 4 3 2 5 5 5 5 5 5 7 7 5 4 4 4 5
3 2 1 5 7 3 0 1 2 2 2 1 1 0 0 0 0 1 2 1 0 1 0 1 0 1 0 1 1 1 3 2 1 1 0 1 0 1 1 1 1 2 1 2 1 1 1 1 2 2 3 2 1 2 1 4 5 2 3 2 1 2 1 1 2 3 3 5 5 5 6 7 4 3 3 4 5 8 6 5 6 8 5 4 5 5 5 5
3 2 1 4 6 2 1 2 2 2 2 1 2 1 0 1 1 2 2 1 1 1 1 0 0 1 1 1 0 1 1 2 2 2 0 0 1 1 1 0 1 1 1 1 1 0 1 1 2 1 3 4 1 0 1 1 4 3 1 1 1 1 2 1 0 1 1 4 5 7 8 5 3 4 4 5 6 7 7 4 5 5 5 7 8 6 6 5
2 2 0 5 4 3 2 1 1 1 0 0 1 1 0 1 2 2 2 1 0 0 1 1 1 1 1 1 0 0 1 1 2 2 0 0 0 1 2 1 0 1 2 2 1 2 1 1 2 1 3 2 2 1 0 1 0 0 1 1 1 0 1 1 0 1 2 2 2 6 9 7 3 3 3 5 6 7 5 5 4 5 7 8 8 7 6 5
2 1 1 5 2 4 2 3 2 2 2 1 2 2 1 0 2 2 2 2 0 1 0 1 0 1 1 1 1 0 1 2 1 1 1 1 1 1 2 2 2 2 2 1 0 2 1 1 2 2 2 1 1 1 3 2 1 1 1 2 2 1 2 1 2 0 1 2 2 2 9 10 5 2 3 5 7 5 6 6 5 6 7 7 6 6 5 4
2 1 2 6 1 5 1 3 2 2 2 1 1 1 1 0 1 1 1 1 1 2 1 0 1 1 1 1 1 1 1 1 1 0 0 1 2 1 1 2 2 1 1 0 2 1 1 1 3 4 3 0 2 2 4 4 4 2 1 2 3 3 3 2 3 2 0 2 2 2 6 8 3 5 5 6 3 6 7 6 5 7 7 7 6 5 4 4
1 1 3 6 1 3 1 2 2 3 3 1 1 1 2 0 2 1 1 2 1 1 0 1 1 2 1 1 1 1 0 1 0 1 1 1 2 2 2 2 1 1 0 0 2 2 1 1 2 4 3 1 1 1 3 6 5 1 2 3 3 3 3 3 1 1 1 3 2 2 5 7 2 6 5 4 4 7 6 5 6 7 6 6 6 5 4 4
2 1 3 6 3 1 1 1 2 3 2 1 1 1 1 1 2 1 1 1 1 1 0 1 1 1 1 1 1 1 1 0 1 2 1 1 1 0 2 3 2 1 1 0 0 1 1 1 1 3 4 2 2 2 3 3 1 2 2 4 4 4 5 4 3 3 1 5 5 3 6 8 4 3 6 8 9 9 5 3 5 6 5 6 5 4 3 4
1 1 1 3 4 3 1 1 2 4 3 2 3 2 1 1 1 1 1 1 1 1 1 1 1 1 1 1 1 1 1 0 1 1 1 1 1 1 1 2 2 3 3 1 2 1 1 1 1 1 2 3 4 4 2 1 2 2 2 5 5 6 7 3 2 2 3 5 6 5 8 13 12 9 11 11 10 12 7 3 4 6 5 5 5 4 3 3
1 1 1 0 3 4 2 1 2 5 4 3 2 1 2 1 1 0 1 1 0 1 0 1 1 1 1 0 1 2 2 1 1 0 1 1 1 1 1 1 1 2 3 2 3 1 1 2 4 5 5 5 5 6 4 3 4 5 3 6 6 6 8 5 2 3 4 3 6 9 11 17 20 16 14 13 12 12 9 5 6 7 6 6 4 3 2 2
0 1 0 0 1 2 2 2 3 4 3 3 2 2 3 2 2 1 1 1 0 0 0 1 0 1 2 2 2 3 3 2 2 1 1 0 2 2 1 1 0 1 3 1 2 1 0 3 4 5 8 8 8 11 9 6 8 10 8 7 8 8 8 7 7 9 3 2 7 11 9 13 21 19 16 15 13 10 8 6 7 7 6 5 5 3 2 2
0 0 0 1 1 1 1 1 2 3 3 1 1 1 4 4 3 2 1 1 0 1 1 0 2 4 3 1 1 1 2 2 2 2 0 0 1 2 2 1 1 4 4 1 0 1 0 3 1 1 7 9 10 13 13 9 9 10 10 8 7 10 12 12 14 13 5 4 12 15 12 14 19 20 18 15 12 9 7 6 6 6 6 6 6 5 3 3
1 1 0 1 0 1 0 3 1 3 4 2 1 2 4 5 4 2 1 1 1 2 2 1 3 6 5 2 1 1 1 2 2 1 1 2 2 2 2 1 2 4 4 2 2 1 1 2 1 1 7 11 12 13 11 8 9 9 10 11 9 10 14 15 15 13 10 13 18 19 20 20 19 18 17 13 9 7 5 5 6 7 7 7 6 4 3 3
1 1 0 0 2 2 0 2 0 2 1 1 0 2 3 5 5 2 1 2 2 2 4 2 2 4 3 3 3 2 0 2 2 3 3 4 2 3 3 1 3 4 3 2 2 1 1 0 0 0 5 10 9 8 7 7 9 10 11 11 10 10 11 13 14 11 9 14 18 16 18 19 15 12 11 9 7 6 7 8 8 6 6 7 5 2 1 3
0 1 1 1 2 1 0 1 1 0 1 1 1 2 3 5 6 4 2 1 1 2 4 4 3 5 3 2 5 2 2 3 3 3 4 4 2 2 2 1 4 6 4 2 2 2 2 1 1 2 4 7 4 2 5 7 8 11 13 13 12 11 9 10 9 8 8 11 13 11 11 13 10 6 6 8 7 8 9 9 8 6 6 5 3 1 1 4
1 0 1 0 1 0 1 0 0 1 0 1 1 2 1 2 5 6 2 0 2 2 1 0 2 3 2 3 5 2 3 3 3 3 2 2 1 1 3 2 3 5 5 4 2 1 2 1 2 2 2 5 2 3 7 8 7 7 9 9 10 11 10 8 8 9 11 9 7 7 10 12 10 8 10 11 9 8 9 7 6 8 7 2 2 2 2 4
Wind_Direction
63 58 64 76 80 85 96 103 109 99 86 77 72 70 61 62 78 111 142 164 169 189 205 224 246 258 309 8 349 346 325 17 54 47 50 18 353 358 0 4 4 359 348 336 325 290 261 226 202 332 265 249 100 51 343 326 319 310 290 328 36 35 32 11 14 35 8 357 357 347 5 5 340 8 46 294 315 306 312 19 47 58 66 79 93 106 112 118
59 57 63 74 80 86 96 100 101 90 82 78 77 74 65 64 70 93 126 158 170 205 233 258 264 259 263 273 294 320 318 347 54 50 33 6 359 6 8 12 10 4 359 354 347 335 348 29 28 332 262 225 82 351 293 331 332 342 327 13 60 27 26 32 31 37 17 357 344 339 356 346 350 9 360 350 339 338 11 30 32 31 40 83 103 107 112 116
53 56 64 74 82 86 92 93 89 84 78 79 86 81 69 65 66 73 91 122 134 122 47 336 288 259 255 261 271 301 311 321 44 37 9 359 1 7 9 13 12 8 8 357 344 344 359 358 340 324 296 94 82 314 356 356 341 8 5 34 60 21 28 45 41 38 17 349 335 338 338 327 13 7 336 350 333 2 41 31 24 21 10 51 113 109 112 114
50 56 65 72 81 80 81 84 84 80 73 79 93 87 71 63 62 59 64 94 101 88 64 50 40 0 254 252 266 293 306 303 32 11 353 353 355 2 7 10 12 15 13 356 325 318 322 302 304 335 320 46 87 80 40 31 351 331 17 47 48 18 22 46 48 38 4 341 339 333 332 337 352 338 333 1 354 28 46 36 32 24 4 34 112 110 108 107
52 62 66 69 72 71 75 83 83 74 70 79 90 87 70 58 57 51 46 77 117 95 66 48 39 30 34 275 256 265 289 286 19 353 345 346 351 357 4 9 15 19 6 341 306 286 275 272 253 278 269 30 41 72 43 33 357 315 61 60 56 30 16 47 50 28 348 344 350 336 346 343 323 338 24 23 36 51 37 37 36 23 5 45 102 103 97 92
47 65 68 60 55 57 67 82 78 70 71 78 85 82 67 57 49 40 33 1 206 174 86 24 8 9 19 28 208 240 269 86 10 348 342 343 349 352 360 8 13 11 355 336 327 314 298 298 252 276 295 61 31 43 44 19 359 352 74 52 54 45 29 56 47 2 347 354 357 339 332 316 303 29 47 48 63 66 51 43 34 24 19 56 87 91 87 79
36 52 54 38 35 48 64 77 71 68 74 78 88 79 66 59 42 31 29 28 202 212 226 298 338 349 354 5 40 59 65 56 359 345 340 344 348 348 357 3 1 1 0 3 357 353 357 355 23 354 333 75 36 31 34 4 14 12 46 41 20 51 70 75 76 332 346 18 357 325 310 333 9 52 55 58 57 48 56 47 42 42 41 64 80 79 78 72
26 30 40 40 44 58 68 74 72 74 80 84 87 72 67 61 43 36 38 47 84 188 230 294 334 339 334 331 294 75 61 3 342 342 340 347 351 353 358 360 357 360 17 21 2 353 359 11 22 347 3 78 11 23 27 340 56 16 4 20 336 62 77 82 141 7 7 78 352 331 334 18 59 75 64 52 38 37 59 54 48 51 54 68 74 76 77 71
26 27 44 57 60 65 68 71 77 77 79 82 74 68 74 65 50 56 72 74 73 77 68 2 9 355 323 284 261 55 29 337 334 340 342 351 2 4 1 8 8 6 30 28 11 15 21 20 15 353 52 87 12 45 13 321 76 8 322 333 322 82 80 58 80 26 42 57 345 340 351 42 83 86 72 50 20 35 66 64 54 57 64 72 73 74 76 76
32 40 60 69 65 63 66 68 73 73 73 73 67 73 89 76 66 84 90 73 56 51 49 39 27 13 352 293 238 65 359 334 338 342 344 353 6 12 16 31 19 6 35 39 21 24 33 30 1 344 28 73 100 110 330 335 31 303 286 312 312 94 99 167 43 27 82 45 352 343 342 37 73 59 67 36 8 52 74 69 63 67 73 76 76 75 78 80
42 59 70 63 54 51 54 57 62 69 72 74 75 82 102 93 77 99 93 36 17 20 34 48 36 35 42 50 69 60 350 340 348 347 348 355 1 15 33 38 22 4 26 53 32 23 30 7 336 344 55 331 80 112 135 124 271 274 269 304 271 136 141 178 62 26 60 31 349 333 325 55 73 52 49 13 13 75 80 74 73 77 79 80 82 81 79 77
58 69 60 37 30 32 42 50 61 76 86 87 81 80 99 106 87 102 73 30 37 42 60 76 44 34 51 58 58 20 348 350 359 352 355 1 346 15 45 36 25 14 22 59 47 24 22 342 339 39 57 289 108 110 121 191 240 254 231 276 166 151 184 146 79 33 38 20 332 328 340 82 65 47 43 10 41 80 80 79 82 83 86 86 83 81 74 72
68 61 32 10 11 21 41 59 88 97 98 90 77 73 85 104 104 86 69 56 58 62 65 64 45 33 45 65 62 22 14 12 11 358 5 16 332 3 50 34 28 30 35 68 73 39 29 343 348 65 2 325 75 127 132 216 231 241 250 297 50 147 189 92 77 26 35 21 342 353 61 97 60 48 37 12 59 81 81 82 88 90 88 86 81 79 74 73
66 45 18 1 5 21 58 88 106 107 102 91 74 70 76 98 97 73 64 42 34 57 31 28 50 53 67 102 124 34 27 23 16 1 6 18 4 27 53 25 20 38 50 70 87 59 29 336 328 127 334 39 92 162 170 197 216 343 316 332 26 12 343 57 76 31 36 19 359 7 35 100 73 50 30 15 64 82 83 85 93 95 91 90 84 81 80 78
57 39 23 8 18 49 85 100 106 107 105 96 77 73 79 94 88 64 53 37 31 22 6 25 25 359 79 108 140 23 17 17 12 2 358 1 7 31 18 3 355 25 50 77 118 62 3 345 354 26 9 59 126 173 164 120 67 35 13 351 13 10 318 2 89 56 35 3 357 357 275 101 82 52 33 27 64 83 87 90 95 97 97 94 89 91 93 88
50 44 42 38 62 90 98 99 96 90 85 92 103 86 73 77 53 17 24 41 60 57 25 17 345 321 98 77 348 1 8 8 2 359 355 350 3 8 340 328 298 313 42 145 141 118 316 7 65 35 11 23 3 343 95 61 31 29 42 359 337 345 311 321 113 70 42 15 347 332 269 113 84 57 40 35 64 85 92 97 99 100 101 98 101 104 98 102
47 52 72 80 95 104 103 98 93 86 79 82 88 85 73 54 18 346 349 50 68 64 55 15 346 353 90 35 346 349 351 350 349 356 359 354 14 12 344 319 225 226 210 233 215 220 239 208 122 80 26 33 8 356 70 42 355 351 15 330 312 337 307 309 274 45 44 31 331 305 279 96 86 64 46 44 67 85 93 98 100 101 102 103 105 105 107 115
44 55 93 105 103 103 102 100 96 89 80 80 83 84 80 68 58 48 39 59 328 1 69 15 0 89 78 24 0 337 327 321 336 357 1 1 9 355 339 320 274 228 226 245 238 297 324 1 48 69 35 33 26 25 66 41 321 311 333 311 308 319 287 302 331 0 30 19 320 305 309 94 85 67 52 47 68 88 96 97 101 102 101 102 99 103 112 105
42 49 87 133 133 125 124 116 109 100 74 54 54 51 65 66 60 51 43 48 36 344 68 349 357 137 36 19 347 329 317 300 335 6 3 2 343 321 290 250 239 240 252 212 53 10 9 36 38 46 25 21 31 32 45 355 306 291 299 291 287 297 282 314 336 9 25 353 302 305 327 97 83 68 61 46 68 92 103 103 106 102 97 102 106 122 128 143
38 44 65 101 171 220 229 227 249 262 283 297 319 319 297 239 56 40 31 42 56 54 81 343 5 77 36 360 339 340 330 282 2 16 3 356 328 300 289 256 213 88 356 64 59 28 54 62 53 34 11 9 24 22 1 309 291 278 267 265 284 301 305 321 329 62 92 341 267 290 322 104 90 77 73 50 69 93 105 108 105 103 106 119 131 144 157 179
32 37 48 55 65 344 277 274 282 278 284 296 292 297 311 348 23 122 23 50 56 22 67 18 4 74 33 315 332 348 336 270 22 16 4 2 336 275 329 331 138 72 44 79 44 74 64 59 63 24 360 355 345 318 323 306 276 262 252 264 296 315 312 310 316 276 80 339 278 282 286 114 104 98 92 70 75 87 105 117 117 122 134 148 149 155 184 209
26 29 32 32 40 40 12 354 346 321 337 20 344 350 58 78 116 136 165 92 74 322 27 48 21 66 23 322 336 340 323 338 15 12 3 3 13 34 334 355 65 37 78 133 97 91 65 61 66 11 350 328 269 250 343 331 281 242 257 313 317 320 320 303 307 345 337 319 286 293 305 119 116 104 95 91 90 81 94 116 126 138 144 151 157 166 284 334
20 23 24 21 27 39 44 43 31 48 79 91 98 93 96 106 123 135 308 103 115 304 16 47 34 37 10 15 359 347 16 30 358 6 1 357 15 26 330 17 65 38 31 54 64 79 69 60 34 343 311 317 298 89 6 341 304 196 129 347 317 327 338 304 310 326 312 298 294 296 294 149 130 109 102 107 109 109 105 112 126 141 144 171 175 92 359 348
14 21 21 16 23 38 47 45 46 75 91 113 110 109 118 115 113 55 332 128 108 3 57 46 43 38 13 10 354 347 42 43 359 360 2 3 1 333 334 27 56 60 49 58 81 83 71 44 356 314 278 328 359 43 25 351 338 31 126 4 322 333 328 296 306 314 303 313 334 299 278 203 166 166 151 138 143 144 141 144 154 156 169 205 160 47 3 338
6 15 17 12 18 23 31 46 75 97 96 104 112 114 114 106 20 348 354 215 89 110 119 137 183 30 10 331 342 338 35 44 23 4 3 13 358 311 2 36 26 59 52 63 90 88 68 54 342 311 313 17 13 26 34 1 330 331 172 319 329 326 311 300 311 319 312 303 301 327 311 243 177 176 164 155 170 164 172 187 184 192 202 208 38 20 336 320
358 4 10 7 10 12 355 58 117 118 105 104 126 126 102 64 18 29 3 240 72 116 326 132 184 8 0 336 341 86 128 17 18 19 17 16 2 238 15 341 145 68 41 39 79 96 71 113 277 286 315 23 15 25 47 25 337 313 285 320 324 315 302 301 314 329 329 295 286 91 337 281 198 174 163 163 180 180 194 209 206 212 211 76 29 327 321 335
355 360 360 357 2 8 3 154 143 137 122 163 154 141 110 70 76 41 319 244 255 256 345 51 256 5 2 339 348 116 145 311 324 30 22 9 355 216 4 22 87 70 52 45 56 313 13 52 347 319 353 37 17 356 21 33 345 292 303 320 320 314 301 292 309 308 278 299 301 136 171 278 283 178 159 160 180 196 206 218 215 213 197 45 306 290 340 351
357 358 355 355 359 11 60 122 141 179 261 173 170 184 223 238 283 319 305 236 271 248 22 30 319 12 354 334 8 87 173 304 319 6 357 3 4 258 98 42 55 84 107 116 92 306 345 34 14 346 9 38 2 317 328 40 276 268 294 312 306 296 283 265 286 283 277 316 309 182 177 278 289 208 149 163 199 217 214 219 215 195 120 302 281 324 356 349
5 1 359 355 358 37 114 136 173 215 176 165 181 206 216 248 279 310 300 241 324 68 302 343 189 12 343 320 27 64 41 2 33 323 326 11 31 31 99 30 26 85 89 85 109 159 28 36 12 354 16 3 312 301 292 148 231 267 290 302 293 276 258 224 213 255 291 348 269 265 14 332 293 220 148 185 232 222 202 208 184 138 183 265 310 355 347 333
19 14 9 359 358 101 96 79 145 166 161 170 180 183 209 257 271 86 262 248 33 69 263 347 256 303 329 285 57 32 26 45 13 316 315 62 21 25 99 345 341 77 31 25 54 96 114 49 6 26 50 287 284 282 217 198 245 282 301 304 301 289 196 154 185 217 308 304 194 175 36 15 304 247 121 170 211 158 151 208 179 151 238 278 340 351 327 331
27 26 21 16 107 173 53 79 141 154 162 170 170 178 235 260 337 176 243 235 58 348 280 26 18 304 341 64 71 7 11 32 355 351 3 22 9 13 42 8 339 67 55 27 43 74 119 72 2 244 246 274 291 284 179 205 254 296 314 315 325 330 106 137 195 108 18 268 166 71 27 5 263 265 107 174 182 153 166 210 213 228 273 303 344 331 323 341
26 26 24 24 41 175 133 133 147 156 167 174 186 229 252 267 303 178 227 244 320 331 6 67 49 340 344 61 57 1 358 351 353 18 4 13 30 26 48 37 336 40 88 349 339 147 179 217 191 208 236 290 322 325 118 222 291 334 335 343 352 344 12 349 290 106 254 253 222 19 4 309 234 238 151 177 183 177 186 193 196 221 288 324 311 297 303 321
19 21 21 25 38 74 111 134 150 164 171 181 245 254 247 281 264 146 88 341 298 312 116 105 347 301 288 17 34 356 313 289 333 353 309 108 85 70 78 55 7 343 122 346 348 358 292 275 235 199 279 340 356 9 33 315 335 356 356 0 9 13 1 332 309 316 273 260 297 331 344 288 254 258 177 181 184 186 188 173 150 144 196 267 270 276 305 319
11 15 18 25 45 77 106 134 158 172 181 244 265 265 21 328 247 214 247 72 82 213 153 77 293 267 319 62 52 351 50 228 320 337 330 25 74 52 57 37 18 7 328 358 14 356 296 269 305 347 301 323 24 67 141 293 315 311 7 44 45 68 20 302 312 322 299 292 300 306 302 283 294 263 182 171 171 179 186 166 142 171 219 251 271 291 315 321
7 11 14 23 40 71 115 154 178 183 228 274 254 233 323 208 182 223 205 142 104 161 143 97 271 255 60 81 82 15 70 83 337 355 0 15 32 13 359 4 10 11 352 7 54 305 264 239 224 13 355 32 70 126 183 124 289 270 136 80 44 122 175 256 268 261 270 289 297 280 221 258 280 198 153 154 173 188 192 175 166 226 252 278 297 305 320 333
4 4 11 19 17 13 146 177 192 191 262 280 253 235 235 183 86 17 349 195 113 83 131 147 274 279 149 117 33 5 69 11 332 1 37 37 30 38 49 3 355 6 31 50 38 2 295 254 164 92 12 43 85 137 279 73 247 280 9 54 183 148 149 247 268 255 249 265 285 291 286 298 341 242 194 188 204 207 200 191 198 253 276 286 293 316 343 347
354 343 359 11 2 351 287 212 202 197 274 283 256 244 219 156 285 351 17 341 107 56 76 207 307 1 81 102 66 5 345 2 334 331 126 110 29 27 55 86 344 359 64 100 60 127 294 281 195 166 116 46 21 12 8 357 320 250 98 273 256 107 122 198 275 285 279 273 281 284 292 308 318 296 228 210 239 260 238 216 228 251 260 273 304 342 348 340
342 304 311 1 356 349 330 225 193 198 271 275 116 187 253 139 306 31 21 334 46 64 290 245 21 66 62 11 82 312 335 9 17 9 126 184 321 326 2 87 18 356 74 113 84 162 206 288 244 188 137 140 10 22 32 328 334 40 144 207 68 85 225 261 295 315 319 308 300 286 291 296 278 262 259 258 291 305 283 237 240 255 264 306 338 353 350 352
315 261 249 6 1 7 151 204 210 233 261 225 152 176 116 76 74 56 25 341 41 58 3 256 69 67 63 42 152 247 8 20 335 327 116 76 325 301 295 136 122 42 40 50 38 297 151 128 271 294 106 129 146 62 144 288 335 13 92 125 94 164 219 212 348 291 271 294 304 306 307 296 222 220 262 289 302 297 285 264 266 299 342 348 348 357 357 358
300 244 23 16 31 103 107 167 243 323 348 114 122 171 337 94 100 77 47 24 46 187 7 20 177 129 86 94 199 354 125 187 288 301 297 38 344 342 17 31 87 54 18 14 354 316 328 153 254 335 73 112 166 279 46 160 199 3 177 153 78 231 168 132 168 156 188 253 292 313 303 286 240 204 232 274 277 277 307 340 339 354 359 348 351 358 353 351
299 221 358 13 81 148 74 45 31 30 89 98 66 69 2 124 116 104 91 54 348 206 163 9 62 115 86 103 142 151 242 226 241 304 331 59 58 15 29 18 1 13 4 7 331 314 312 242 288 291 293 267 157 358 353 21 70 95 151 156 160 173 102 70 288 195 141 220 198 288 293 284 270 187 195 232 253 293 355 14 3 356 351 348 357 355 347 356
291 223 349 5 157 201 335 48 46 10 70 93 28 56 22 171 118 109 139 133 247 235 199 165 31 56 51 59 131 157 238 254 222 233 326 86 67 49 45 16 5 20 330 6 119 62 16 295 286 274 270 28 86 13 8 30 46 59 104 137 143 151 143 168 260 285 274 245 200 197 268 277 241 163 197 221 259 345 21 41 7 347 342 347 351 343 352 21
306 221 8 11 92 184 8 65 64 24 58 136 268 8 13 35 106 105 203 181 210 268 230 158 10 26 36 13 116 142 136 289 256 67 55 81 76 57 32 19 5 206 256 129 114 63 20 222 253 271 272 86 69 339 15 31 30 2 209 164 150 154 148 156 185 32 334 250 216 187 251 270 228 173 219 271 335 353 27 53 0 339 336 346 344 340 6 37
352 323 14 20 43 95 22 107 120 84 104 162 143 82 6 355 55 72 217 158 162 298 340 131 101 73 73 334 343 98 102 38 54 72 71 68 76 354 3 20 18 31 51 70 56 15 345 175 228 297 299 319 348 341 355 10 331 239 204 167 162 127 98 78 85 87 299 232 205 198 253 267 262 227 284 314 333 338 1 41 351 337 339 344 340 342 24 45
329 299 30 43 46 57 53 235 130 123 145 140 114 138 179 78 49 7 346 66 42 336 24 81 358 32 75 357 2 62 86 116 49 65 93 64 75 211 35 26 8 39 62 31 336 310 277 281 267 283 302 312 314 308 315 319 262 252 149 160 169 141 135 131 108 143 246 226 197 209 260 279 292 296 303 315 326 326 330 359 345 340 344 340 337 355 41 49
328 326 279 72 44 58 84 261 102 120 149 153 127 166 181 132 125 195 337 357 84 357 102 128 352 355 103 169 217 184 168 137 71 35 218 133 118 121 106 103 358 43 75 39 344 327 305 284 251 237 244 257 274 277 298 338 293 278 228 187 183 166 166 153 114 204 227 232 234 236 250 278 292 299 307 316 321 320 324 343 340 336 341 339 340 5 38 40
247 294 297 192 356 34 65 48 70 106 157 182 146 146 156 134 121 157 272 318 107 344 326 108 101 196 162 170 225 197 168 136 104 93 277 175 93 76 126 150 171 147 126 67 343 58 311 268 250 241 249 254 271 279 289 302 276 267 262 223 184 172 174 167 195 225 229 3 273 256 245 272 289 297 305 310 315 318 322 331 330 328 334 339 343 354 5 9
33 326 110 139 314 24 64 356 22 90 114 121 75 139 150 144 159 190 207 15 330 233 202 120 232 224 202 176 235 179 156 171 177 167 248 225 122 121 179 204 164 155 144 118 314 105 158 268 257 235 265 267 272 273 274 273 261 254 256 245 202 179 182 193 222 234 221 226 258 270 281 281 285 291 297 303 308 311 314 318 322 326 335 340 338 338 352 1
69 70 38 244 87 92 250 287 315 103 99 75 98 189 178 170 179 190 109 101 271 221 176 211 231 211 201 174 132 221 198 188 218 223 146 162 192 183 191 219 153 156 163 161 168 141 163 255 272 289 282 281 274 267 258 248 254 256 250 248 235 207 197 208 233 238 227 238 254 272 283 280 276 281 289 294 294 296 309 322 327 331 334 332 328 337 1 349
118 120 131 107 91 94 291 288 297 135 120 29 262 195 193 189 184 171 125 163 195 176 172 212 213 163 157 170 187 232 301 129 178 215 175 160 201 218 210 197 133 159 205 178 144 172 179 208 46 36 297 292 280 267 245 227 245 263 261 252 244 239 225 223 236 239 234 248 257 264 274 276 273 270 273 278 288 308 322 325 327 329 326 322 327 8 13 316
171 160 155 119 92 101 18 323 352 355 166 228 225 179 203 212 184 158 130 126 98 151 179 187 147 115 93 213 215 220 38 81 125 164 171 167 183 198 188 120 118 147 188 184 135 168 179 255 327 51 317 291 272 248 260 259 262 268 271 262 244 240 237 225 226 219 208 236 259 264 266 272 277 278 274 284 305 320 319 320 320 316 317 323 341 84 284 303
153 149 190 84 33 225 251 97 97 331 248 235 200 142 199 226 156 140 137 11 74 66 16 291 133 135 144 210 214 201 42 62 91 94 141 154 155 157 129 91 106 145 167 163 142 162 167 271 325 40 306 279 304 327 298 304 306 275 259 245 225 225 235 236 236 223 209 219 254 261 257 268 288 305 300 301 313 316 313 318 317 309 316 347 124 170 281 308